Fort Morgan, CO

8:00 PM MST on December 10, 2016 (GMT -0700)
Fort Morgan

Weather History for KFMM - May, 2013

Change the Weather History Date:

Tuesday, May 28, 2013

  Actual Average (KAKO) Record (KAKO)
Temperature  
Mean Temperature 66 °F -  
Max Temperature 84 °F 72 °F 95 °F (2000)
Min Temperature 47 °F 47 °F 30 °F (1947)
Growing Degree Days 16 (Base 50)    
Moisture  
Dew Point 41 °F    
Average Humidity 47    
Maximum Humidity 84    
Minimum Humidity 13    
Precipitation  
Precipitation 0.00 in - - ()
Sea Level Pressure  
Sea Level Pressure 29.71 in    
Wind  
Wind Speed 11 mph (East)    
Max Wind Speed 30 mph    
Max Gust Speed 59 mph    
Visibility 10 miles    
Events Thunderstorm    
Averages and records for this station are not official NWS values.
T = Trace of Precipitation, MM = Missing Value Source: NWS Daily Summary

Daily Weather History Graph

Daily Weather History Graph

Search for Another Location

Airport or City:

Trip Planner

Search our weather history database for the weather conditions in past years. The results will help you decide how hot, cold, wet, or windy it might be!

Date:

Astronomy

May. 28, 2013 Rise Set
Actual Time 5:29 AM MDT 8:16 PM MDT
Civil Twilight 4:57 AM MDT 8:48 PM MDT
Nautical Twilight 4:16 AM MDT 9:28 PM MDT
Astronomical Twilight 3:30 AM MDT 10:15 PM MDT
Moon 11:41 PM MDT (5/28) 9:20 AM MDT (5/28)
Length of Visible Light 15h 51m
Length of Day
14h 47m
Waning Gibbous, 82% of the Moon is Illuminated
May 28
Waning Gibbous
May 31
Last Quarter
Jun 8
New
Jun 16
First Quarter
Jun 23
Full

Hourly Weather History & Observations

Time (MDT) Temp. Dew Point Humidity Pressure Visibility Wind Dir Wind Speed Gust Speed Precip Events Conditions
12:15 AM 53.4 °F 43.5 °F 69% 29.79 in 10.0 mi West 6.9 mph - N/A   Clear
12:35 AM 52.2 °F 43.2 °F 71% 29.79 in 10.0 mi West 5.8 mph - N/A   Clear
12:55 AM 51.8 °F 43.2 °F 72% 29.79 in 10.0 mi NW 8.1 mph - N/A   Clear
1:15 AM 53.1 °F 43.7 °F 71% 29.79 in 10.0 mi NW 8.1 mph - N/A   Clear
1:35 AM 53.8 °F 44.1 °F 70% 29.79 in 10.0 mi NW 9.2 mph - N/A   Clear
1:55 AM 53.8 °F 43.7 °F 69% 29.78 in 10.0 mi WNW 8.1 mph - N/A   Clear
2:15 AM 53.8 °F 43.7 °F 69% 29.79 in 10.0 mi West 5.8 mph - N/A   Clear
2:35 AM 49.5 °F 43.5 °F 80% 29.79 in 10.0 mi West 4.6 mph - N/A   Clear
2:55 AM 47.5 °F 42.6 °F 83% 29.80 in 10.0 mi Calm Calm - N/A   Clear
3:15 AM 47.8 °F 43.3 °F 84% 29.81 in 10.0 mi North 12.7 mph 16.1 mph N/A   Clear
3:35 AM 49.1 °F 43.2 °F 80% 29.83 in 10.0 mi North 12.7 mph - N/A   Clear
3:55 AM 51.8 °F 42.3 °F 70% 29.83 in 10.0 mi NNE 16.1 mph - N/A   Clear
4:15 AM 51.3 °F 41.9 °F 70% 29.83 in 10.0 mi North 12.7 mph 18.4 mph N/A   Clear
4:35 AM 50.4 °F 41.5 °F 72% 29.82 in 10.0 mi North 13.8 mph - N/A   Clear
4:55 AM 50.0 °F 41.2 °F 72% 29.82 in 10.0 mi North 12.7 mph - N/A   Clear
5:15 AM 49.3 °F 41.5 °F 75% 29.82 in 10.0 mi North 12.7 mph - N/A   Clear
5:35 AM 49.5 °F 41.9 °F 75% 29.82 in 10.0 mi North 10.4 mph - N/A   Clear
5:55 AM 49.1 °F 42.3 °F 77% 29.83 in 10.0 mi North 5.8 mph - N/A   Clear
6:15 AM 50.5 °F 42.6 °F 74% 29.84 in 10.0 mi Calm Calm - N/A   Clear
6:35 AM 51.6 °F 43.3 °F 73% 29.84 in 10.0 mi Calm Calm - N/A   Clear
6:55 AM 52.7 °F 43.9 °F 72% 29.84 in 10.0 mi NNE 3.5 mph - N/A   Clear
7:15 AM 53.4 °F 43.9 °F 70% 29.84 in 10.0 mi ENE 5.8 mph - N/A   Clear
7:35 AM 55.4 °F 43.7 °F 65% 29.83 in 10.0 mi NNE 5.8 mph - N/A   Clear
7:55 AM 56.7 °F 44.6 °F 64% 29.83 in 10.0 mi North 8.1 mph - N/A   Clear
8:15 AM 58.1 °F 45.7 °F 63% 29.83 in 10.0 mi NNE 8.1 mph - N/A   Clear
8:35 AM 60.8 °F 44.6 °F 55% 29.83 in 10.0 mi Calm Calm - N/A   Clear
8:55 AM 62.8 °F 43.9 °F 50% 29.82 in 10.0 mi East 4.6 mph - N/A   Clear
9:15 AM 64.6 °F 43.9 °F 47% 29.82 in 10.0 mi ESE 4.6 mph - N/A   Clear
9:35 AM 66.2 °F 44.2 °F 45% 29.82 in 10.0 mi SE 9.2 mph - N/A   Clear
9:55 AM 67.1 °F 43.9 °F 43% 29.80 in 10.0 mi ESE 10.4 mph - N/A   Clear
10:15 AM 68.0 °F 44.6 °F 43% 29.80 in 10.0 mi ESE 6.9 mph - N/A   Clear
10:35 AM 70.3 °F 44.6 °F 40% 29.79 in 10.0 mi SSE 6.9 mph - N/A   Clear
10:55 AM 70.2 °F 44.4 °F 40% 29.78 in 10.0 mi SSE 4.6 mph - N/A   Clear
11:15 AM 72.7 °F 44.8 °F 37% 29.77 in 10.0 mi SSW 3.5 mph - N/A   Clear
11:35 AM 75.4 °F 44.1 °F 33% 29.76 in 10.0 mi South 6.9 mph - N/A   Clear
11:55 AM 77.2 °F 43.7 °F 30% 29.74 in 10.0 mi SSE 8.1 mph - N/A   Clear
12:15 PM 79.3 °F 42.4 °F 27% 29.73 in 10.0 mi South 9.2 mph 17.3 mph N/A   Clear
12:35 PM 82.0 °F 41.2 °F 23% 29.73 in 10.0 mi South 19.6 mph 36.8 mph N/A   Scattered Clouds
12:55 PM 82.2 °F 39.7 °F 22% 29.72 in 10.0 mi South 17.3 mph 27.6 mph N/A   Scattered Clouds
1:15 PM 80.4 °F 38.7 °F 22% 29.71 in 10.0 mi SSE 18.4 mph 29.9 mph N/A   Clear
1:35 PM 80.6 °F 39.4 °F 23% 29.70 in 10.0 mi South 18.4 mph 26.5 mph N/A   Clear
1:55 PM 80.6 °F 38.5 °F 22% 29.69 in 10.0 mi SSE 17.3 mph 26.5 mph N/A   Clear
2:15 PM 82.9 °F 37.6 °F 20% 29.66 in 10.0 mi SSE 20.7 mph 28.8 mph N/A   Scattered Clouds
2:35 PM 81.9 °F 38.7 °F 21% 29.65 in 10.0 mi SE 24.2 mph 31.1 mph N/A   Scattered Clouds
2:55 PM 84.0 °F 37.8 °F 19% 29.65 in 10.0 mi SSE 24.2 mph 32.2 mph N/A   Scattered Clouds
3:15 PM 83.3 °F 37.0 °F 19% 29.65 in 10.0 mi SSE 21.9 mph 28.8 mph N/A   Scattered Clouds
3:35 PM 84.0 °F 34.3 °F 17% 29.63 in 10.0 mi SSE 20.7 mph 35.7 mph N/A   Scattered Clouds
3:55 PM 84.2 °F 34.0 °F 17% 29.62 in 10.0 mi South 21.9 mph 31.1 mph N/A   Scattered Clouds
4:15 PM 82.4 °F 39.7 °F 22% 29.62 in 10.0 mi SSE 24.2 mph 34.5 mph N/A   Scattered Clouds
4:35 PM 83.5 °F 39.9 °F 21% 29.61 in 10.0 mi SSE 29.9 mph 34.5 mph N/A   Scattered Clouds
4:55 PM 83.1 °F 40.5 °F 22% 29.59 in 10.0 mi SE 25.3 mph 31.1 mph N/A   Scattered Clouds
5:15 PM 82.2 °F 39.4 °F 22% 29.58 in 10.0 mi SSE 26.5 mph 36.8 mph N/A   Scattered Clouds
5:35 PM 83.1 °F 37.2 °F 19% 29.57 in 10.0 mi SSE 20.7 mph 36.8 mph N/A   Scattered Clouds
5:55 PM 80.1 °F 36.3 °F 21% 29.56 in 10.0 mi SSE 27.6 mph 38.0 mph N/A   Clear
6:15 PM 79.3 °F 36.5 °F 21% 29.56 in 10.0 mi SSE 25.3 mph 33.4 mph N/A   Clear
6:35 PM 79.7 °F 35.6 °F 20% 29.56 in 10.0 mi SSE 25.3 mph 35.7 mph N/A   Clear
6:55 PM 78.1 °F 38.1 °F 24% 29.56 in 10.0 mi SE 15.0 mph 29.9 mph N/A   Clear
7:15 PM 71.8 °F 40.1 °F 32% 29.58 in 10.0 mi North 24.2 mph 28.8 mph N/A   Clear
7:35 PM 69.1 °F 39.9 °F 35% 29.58 in 10.0 mi NNE 8.1 mph 23.0 mph N/A   Clear
7:55 PM 68.9 °F 40.1 °F 35% 29.57 in 10.0 mi NNE 20.7 mph 25.3 mph N/A   Clear
8:15 PM 67.3 °F 41.2 °F 39% 29.59 in 10.0 mi NNE 11.5 mph 17.3 mph N/A   Clear
8:35 PM 63.0 °F 42.8 °F 48% 29.59 in 10.0 mi ENE 9.2 mph - N/A   Clear
8:55 PM 67.3 °F 39.4 °F 36% 29.59 in 10.0 mi NE 8.1 mph - N/A   Clear
9:15 PM 65.8 °F 41.2 °F 41% 29.59 in 10.0 mi North 16.1 mph - N/A   Clear
9:35 PM 66.2 °F 36.9 °F 34% 29.59 in 10.0 mi NE 5.8 mph 24.2 mph N/A   Scattered Clouds
9:55 PM 78.6 °F 24.3 °F 13% 29.58 in 7.0 mi SSE 21.9 mph 58.7 mph N/A   Mostly Cloudy
10:15 PM 76.6 °F 26.4 °F 16% 29.56 in 10.0 mi SE 16.1 mph 47.2 mph N/A Thunderstorm Scattered Clouds
10:35 PM 72.7 °F 51.6 °F 47% 29.62 in 10.0 mi ESE 16.1 mph 38.0 mph N/A   Clear
10:55 PM 64.9 °F 46.0 °F 50% 29.64 in 10.0 mi NNE 23.0 mph 26.5 mph N/A   Scattered Clouds
11:15 PM 56.8 °F 47.3 °F 70% 29.63 in 10.0 mi North 23.0 mph 32.2 mph N/A   Overcast
11:35 PM 56.3 °F 46.6 °F 70% 29.63 in 10.0 mi North 26.5 mph 34.5 mph N/A   Overcast
11:55 PM 56.3 °F 45.7 °F 68% 29.62 in 10.0 mi North 25.3 mph 31.1 mph N/A   Overcast